Flag for U.S.A. Weather past 2 weeks in Santa Fe, New Mexico, U.S.A.

Now
64 °F

Passing clouds.


Feels Like: 64 °F
Forecast: 56 / 76 °F
Wind: 3 mph from Northwest

Location: Santa Fe County Municipal Airport

Current Time: Aug 1, 2015 at 8:49:47 AM

Latest Report: Aug 1, 2015 at 7:53 AM


Visibility: 10 mi

Pressure: 30.09 "Hg (23.42 "Hg at 2132m altitude)

Humidity: 84%

Dew point: 59 °F

Location of Santa FeLocation

Historic Weather in Santa Fe — Graph

°F

Santa Fe temperature yesterday

Maximum temperature yesterday: 79 °F (at 4:53 PM)
Minimum temperature yesterday: 62 °F (at 3:53 AM)
Average temperature yesterday: 68 °F

Past Weeks' High & Low Weather Summary

 TemperatureHumidityPressure
High92 °F (Jul 24, 3:53 PM)93% (Jul 21, 12:01 AM)30.45 "Hg (Jul 21, 12:01 AM)
Low57 °F (Jul 18, 3:53 AM)15% (Jul 25, 4:53 PM)29.74 "Hg (Jul 26, 6:53 PM)
Average72 °F52%29.93 "Hg
* Reported Jul 17 6:53 AM — Aug 1 6:53 AM, Santa Fe, Weather by CustomWeather, © 2015

Note: Actual official high and low records may vary slightly from our data, if they occured in-between our weather recording intervals... More about our weather records

Advertising

Santa Fe weather history for previous 24 hours

 ConditionsComfort  
Time TempWeatherWind HumidityBarometerVisibility
6:53 AM
Sat, Aug 1
62 °FMostly cloudy.3 mph86%30.08 "Hg10 mi
5:53 AM61 °FPassing clouds.3 mph87%30.06 "Hg10 mi
4:53 AM62 °FClear.5 mph83%30.03 "Hg10 mi
3:53 AM63 °FOvercast.5 mph84%30.05 "Hg10 mi
2:53 AM63 °FOvercast.No wind84%30.05 "Hg10 mi
1:53 AM64 °FPassing clouds.3 mph78%30.07 "Hg10 mi
12:53 AM64 °FPassing clouds.7 mph84%30.07 "Hg10 mi
11:53 PM
Fri, Jul 31
65 °FPassing clouds.6 mph85%30.10 "Hg10 mi
10:53 PM64 °FOvercast.No wind84%30.11 "Hg10 mi
9:53 PM65 °FPassing clouds.No wind78%30.09 "Hg10 mi
8:53 PM67 °FLight rain. Partly sunny.3 mph73%30.06 "Hg10 mi
7:53 PM65 °FThundershowers. Scattered clouds.3 mph73%30.08 "Hg10 mi
6:53 PM70 °FPartly sunny.12 mph64%30.05 "Hg10 mi
5:53 PM75 °FSunny.16 mph50%30.03 "Hg10 mi
4:53 PM79 °FSunny.14 mph45%30.01 "Hg10 mi
3:53 PM78 °FPassing clouds.14 mph48%30.05 "Hg10 mi
2:53 PM78 °FScattered clouds.8 mph46%30.05 "Hg10 mi
1:53 PM73 °FSunny.6 mph57%30.09 "Hg10 mi
12:53 PM75 °FOvercast.9 mph55%30.10 "Hg10 mi
11:53 AM71 °FThundershowers. Partly sunny.5 mph63%30.14 "Hg10 mi
10:53 AM69 °FCloudy.9 mph68%30.14 "Hg10 mi
9:53 AM69 °FCloudy.6 mph66%30.15 "Hg10 mi
8:53 AM68 °FPartly sunny.9 mph68%30.16 "Hg10 mi
Weather by CustomWeather, © 2015

See weather overviewHow to use our weather pages